550 
ASUS46 KSEW 281220
RWRWA 

WASHINGTON REGIONAL WEATHER ROUNDUP
NATIONAL WEATHER SERVICE SEATTLE WA
500 AM PDT WED JUL 28 2021

NOTE:"FAIR" INDICATES FEW OR NO CLOUDS BELOW 12,000 FEET WITH NO 
SIGNIFICANT WEATHER AND/OR OBSTRUCTIONS TO VISIBILITY.

WAZ507-509-555>559-281300-
SEATTLE, TACOMA, EVERETT, AND VICINITY
  
CITY           SKY/WX    TMP DP  RH WIND       PRES   REMARKS
EVERETT        CLEAR     60  41  49 VRB3      30.14S                  
6HR MIN TEMP:  60; 6HR MAX TEMP:  63;                                

BOEING FIELD   CLEAR     63  51  65 CALM      30.11F                  
6HR MIN TEMP:  63; 6HR MAX TEMP:  72;                                

RENTON         CLEAR     61  54  77 SE3       30.11F                  
6HR MIN TEMP:  61; 6HR MAX TEMP:  73;                                

SEATAC AIRPORT PTCLDY    60  53  77 CALM      30.12F                  
6HR MIN TEMP:  60; 6HR MAX TEMP:  72;                                

JBLM-MCCHORD   NOT AVBL                                               
PUYALLUP       DRIZZLE   55  55 100 CALM      30.13S                  
BREMERTON      CLEAR     53  50  89 CALM      30.13F                  
6HR MIN TEMP:  53; 6HR MAX TEMP:  64;                                

JBLM-FT LEWIS  NOT AVBL                                               
TACOMA NARROWS CLEAR     57  55  93 CALM      30.13S                  
6HR MIN TEMP:  55; 6HR MAX TEMP:  67;                                

$$
 
WAZ001-503-506-510-514-515-281300-
NORTH INTERIOR
  
CITY           SKY/WX    TMP DP  RH WIND       PRES   REMARKS
BELLINGHAM     CLEAR     60  52  74 SW3       30.12R                  
6HR MIN TEMP:  57; 6HR MAX TEMP:  63;                                

FRIDAY HARBOR  CLEAR     51  49  92 E3        30.13S                  
6HR MIN TEMP:  50; 6HR MAX TEMP:  53;                                

EASTSOUND      CLEAR     59  52  77 S5        30.11R                  
PORT ANGELES   CLEAR     51  47  86 CALM      30.13S                  
6HR MIN TEMP:  50; 6HR MAX TEMP:  59;                                

EDIZ HOOK      FAIR      51  51 100 W3        30.14R                  
6HR MIN TEMP:  51; 6HR MAX TEMP:  57;                                

PORT TOWNSEND  FAIR      50  48  93 CALM      30.13S                  
NAS WHIDBEY    PTCLDY    56  51  84 SW7       30.17S                  
6HR MIN TEMP:  53; 6HR MAX TEMP:  57;                                

ARLINGTON      CLEAR     50  47  89 N5        30.14S                  
6HR MIN TEMP:  49; 6HR MAX TEMP:  61;                                

BURLINGTON     CLEAR     52  48  87 CALM      30.14S                  
$$
 
WAZ020-022-039-040-504-511-512-281300-
SOUTHWEST INTERIOR
  
CITY           SKY/WX    TMP DP  RH WIND       PRES   REMARKS
SHELTON        CLEAR     52  51  97 SW3       30.11S                  
6HR MIN TEMP:  52; 6HR MAX TEMP:  61;                                

OLYMPIA        CLEAR     53  50  89 CALM      30.13S                  
6HR MIN TEMP:  52; 6HR MAX TEMP:  64;                                

CHEHALIS       FAIR      52  52 100 CALM      30.13S                  
KELSO          CLEAR     57  54  89 CALM      30.13R                  
6HR MIN TEMP:  57; 6HR MAX TEMP:  66;                                

VANCOUVER      CLEAR     63  52  67 N3        30.09S                  
6HR MIN TEMP:  62; 6HR MAX TEMP:  72;                                

SCAPPOOSE, OR  CLEAR     59  53  80 CALM      30.09S                  
6HR MIN TEMP:  59; 6HR MAX TEMP:  71;                                

PORTLAND, OR   PTCLDY    63  55  75 NW7       30.10R                  
6HR MIN TEMP:  63; 6HR MAX TEMP:  73;                                

$$
 
WAZ021-516-517-281300-
WASHINGTON COAST
  
CITY           SKY/WX    TMP DP  RH WIND       PRES   REMARKS
FORKS          PTCLDY    46  45  96 NE3       30.15S                  
6HR MIN TEMP:  45; 6HR MAX TEMP:  52;                                

HOQUIAM        CLOUDY    57  54  89 E3        30.14S                  
6HR MIN TEMP:  55; 6HR MAX TEMP:  58;                                

ASTORIA, OR    PTCLDY    50  48  93 VRB3      30.13S                  
6HR MIN TEMP:  49; 6HR MAX TEMP:  60;                                

$$
 
WAZ019-023-024-040-567>569-281300-
CASCADE MOUNTAINS AND COLUMBIA GORGE
  
CITY           SKY/WX    TMP DP  RH WIND       PRES   REMARKS
STAMPEDE PASS  CLEAR     54  50  86 SW3       30.22F                  
6HR MIN TEMP:  54; 6HR MAX TEMP:  58;                                

TROUTDALE, OR  CLEAR     59  52  77 CALM      30.09S                  
6HR MIN TEMP:  59; 6HR MAX TEMP:  74; 6HR PCP: TRACE;                

HOOD RIVER, OR SUNNY     55  48  76 CALM      30.08R                  
THE DALLES, OR CLEAR     65  50  58 CALM      30.06R                  
6HR MIN TEMP:  64; 6HR MAX TEMP:  80;                                

$$

WAZ026-027-041>044-520-521-281300-
EAST SLOPES
  
CITY           SKY/WX    TMP DP  RH WIND       PRES   REMARKS
OMAK           CLEAR     60  45  57 W6        30.09R                  
6HR MIN TEMP:  59; 6HR MAX TEMP:  80;                                

WENATCHEE      CLEAR     69  53  56 W7        30.06S                  
6HR MIN TEMP:  68; 6HR MAX TEMP:  78;                                

ELLENSBURG     CLEAR     66  51  58 NW12      30.09R                  
6HR MIN TEMP:  66; 6HR MAX TEMP:  74;                                

YAKIMA         CLEAR     60  51  72 W5        30.07S                  
6HR MIN TEMP:  60; 6HR MAX TEMP:  76;                                

SUNNYSIDE ARPT NOT AVBL                                               
YAKIMA TC      NOT AVBL                                               
$$

WAZ028-034-035-281300-
COLUMBIA BASIN
  
CITY           SKY/WX    TMP DP  RH WIND       PRES   REMARKS
EPHRATA        CLEAR     62  48  60 N9        30.07R                  
6HR MIN TEMP:  61; 6HR MAX TEMP:  69;                                

MOSES LAKE     CLEAR     57  50  77 N8        30.06S                  
6HR MIN TEMP:  57; 6HR MAX TEMP:  70;                                

PASCO          CLEAR     65  58  78 CALM      30.04S                  
6HR MIN TEMP:  61; 6HR MAX TEMP:  79;                                

RICHLAND ARPT  SUNNY     65  55  69 CALM      30.05R                  
6HR MIN TEMP:  67; 6HR MAX TEMP:  80;                                

HERMISTON, OR  PTCLDY    66  59  78 CALM      30.06S                  
6HR MIN TEMP:  65; 6HR MAX TEMP:  77;                                

$$

WAZ036>038-281300-
NORTHEAST WASHINGTON
  
CITY           SKY/WX    TMP DP  RH WIND       PRES   REMARKS
SPOKANE GEIGER MOCLDY    68  49  50 SE6       30.14S                  
6HR MIN TEMP:  67; 6HR MAX TEMP:  70;                                

SPOKANE FELTS  MOCLDY    67  55  65 NE3       30.14R                  
6HR MIN TEMP:  66; 6HR MAX TEMP:  72;                                

FAIRCHILD AFB  NOT AVBL                                               
COEURDALENE,ID MOCLDY    66  61  84 E3        30.16S                  
6HR MIN TEMP:  64; 6HR MAX TEMP:  67; 6HR PCP: TRACE;                

DEER PARK      PTCLDY    55  47  74 MISG      30.15S                  
6HR MIN TEMP:  55; 6HR MAX TEMP:  70;                                

$$

WAZ029>033-281300-
SOUTHEAST WASHINGTON
  
CITY           SKY/WX    TMP DP  RH WIND       PRES   REMARKS
PULLMAN        MOCLDY    64  55  72 CALM      30.18R                  
6HR MIN TEMP:  64; 6HR MAX TEMP:  71; 6HR PCP: TRACE;                

LEWISTON, ID   MOCLDY    72  53  51 SE3       30.11R                  
6HR MIN TEMP:  71; 6HR MAX TEMP:  78; 6HR PCP: TRACE;                

WALLA WALLA    PTCLDY    72  55  55 S5        30.08S                  
6HR MIN TEMP:  69; 6HR MAX TEMP:  78; 6HR PCP: TRACE;                

PENDLETON, OR  PTCLDY    70  58  65 SE3       30.10S                  
6HR MIN TEMP:  69; 6HR MAX TEMP:  76; 6HR PCP:  0.01;                

$$